Index of /manuals/Inspection Programs/AAIP/206L Series/Rev 7/Section B/

NameLast ModifiedSize
UpParent Directory
DirectoryArchive2023-06-21 17:03-
[CMP]B Inspections.zip2023-06-21 16:52 169k
FileB0052NT - 300 hr.doc2023-06-21 16:52 197k
FileB0053NT - 300 hr.doc2023-06-21 16:52 155k
FileB0055NT - 300 hr.doc2023-06-21 16:52 161k
FileB0056NT - 300 hr - Pg 2.pdf2023-06-21 16:52 89k
FileB0056NT - 300 hr - Rev 5.doc2023-06-21 16:52 179k
FileB0150NT - 150 hr.doc2023-06-21 16:52 111k
FileB0300NT - 300 hr.pdf2023-06-21 16:52 86k
FileB0301NT - 300 hr (2).pdf2023-06-21 16:52 92k
FileB0301NT - 300 hr.doc2023-06-21 16:52 182k
FileB0301NT - 300 hr.pdf2023-06-21 16:52 92k
FileB0302NT - 300 hr.doc2023-06-21 16:52 171k
FileB0303NT - 300 hr.doc2023-06-21 16:52 158k
FileB0304NT - 300 hr.doc2023-06-21 16:52 167k
FileB0350NT - 300 hr 12 Mon.doc2023-06-21 16:52 82k
FileC30 Eng.PDF2023-06-21 16:52 464k
FileRR C30 Checks and Inspections.PDF2023-06-21 16:52 357k
File~$0511NT - 300 hr.doc2023-06-21 16:52 1k
File~$051NT - 300 hr (1).doc2023-06-21 16:52 1k
File~$051NT - 300 hr (10).doc2023-06-21 16:52 1k
File~$051NT - 300 hr (11).doc2023-06-21 16:52 1k
File~$051NT - 300 hr (12).doc2023-06-21 16:52 1k
File~$051NT - 300 hr (13).doc2023-06-21 16:52 1k
File~$051NT - 300 hr (14).doc2023-06-21 16:52 1k
File~$051NT - 300 hr (15).doc2023-06-21 16:52 1k
File~$051NT - 300 hr (16).doc2023-06-21 16:52 1k
File~$051NT - 300 hr (2).doc2023-06-21 16:52 1k
File~$051NT - 300 hr (3).doc2023-06-21 16:52 1k
File~$051NT - 300 hr (4).doc2023-06-21 16:52 1k
File~$051NT - 300 hr (5).doc2023-06-21 16:52 1k
File~$051NT - 300 hr (7).doc2023-06-21 16:52 1k
File~$051NT - 300 hr (9).doc2023-06-21 16:52 1k
File~$051NT - 300 hr.doc2023-06-21 16:52 1k
File~$052NT - 300 hr (1).doc2023-06-21 16:52 1k
File~$052NT - 300 hr (10).doc2023-06-21 16:52 1k
File~$052NT - 300 hr (11).doc2023-06-21 16:52 1k
File~$052NT - 300 hr (12).doc2023-06-21 16:52 1k
File~$052NT - 300 hr (2).doc2023-06-21 16:52 1k
File~$052NT - 300 hr (3).doc2023-06-21 16:52 1k
File~$052NT - 300 hr (4).doc2023-06-21 16:52 1k
File~$052NT - 300 hr (5).doc2023-06-21 16:52 1k
File~$052NT - 300 hr (6).doc2023-06-21 16:52 1k
File~$052NT - 300 hr (7).doc2023-06-21 16:52 1k
File~$052NT - 300 hr (8).doc2023-06-21 16:52 1k
File~$052NT - 300 hr (9).doc2023-06-21 16:52 1k
File~$052NT - 300 hr.doc2023-06-21 16:52 1k
File~$053NT - 300 hr (11).doc2023-06-21 16:52 1k
File~$053NT - 300 hr (12).doc2023-06-21 16:52 1k
File~$053NT - 300 hr (3).doc2023-06-21 16:52 1k
File~$053NT - 300 hr (4).doc2023-06-21 16:52 1k
File~$053NT - 300 hr (6).doc2023-06-21 16:52 1k
File~$053NT - 300 hr (7).doc2023-06-21 16:52 1k
File~$053NT - 300 hr (8).doc2023-06-21 16:52 1k
File~$053NT - 300 hr (9).doc2023-06-21 16:52 1k
File~$053NT - 300 hr.doc2023-06-21 16:52 1k
File~$054NT - 300 hr (1).doc2023-06-21 16:52 1k
File~$054NT - 300 hr (10).doc2023-06-21 16:52 1k
File~$054NT - 300 hr (13).doc2023-06-21 16:52 1k
File~$054NT - 300 hr (2).doc2023-06-21 16:52 1k
File~$054NT - 300 hr (3).doc2023-06-21 16:52 1k
File~$054NT - 300 hr (4).doc2023-06-21 16:52 1k
File~$054NT - 300 hr (5).doc2023-06-21 16:52 1k
File~$054NT - 300 hr (8).doc2023-06-21 16:52 1k
File~$054NT - 300 hr (9).doc2023-06-21 16:52 1k
File~$055NT - 300 hr (1).doc2023-06-21 16:52 1k
File~$055NT - 300 hr (3).doc2023-06-21 16:52 1k
File~$055NT - 300 hr (4).doc2023-06-21 16:52 1k
File~$055NT - 300 hr (5).doc2023-06-21 16:52 1k
File~$055NT - 300 hr (6).doc2023-06-21 16:52 1k
File~$055NT - 300 hr (7).doc2023-06-21 16:52 1k
File~$055NT - 300 hr.doc2023-06-21 16:52 1k
File~$056NT - 300 hr (2).doc2023-06-21 16:52 1k
File~$056NT - 300 hr (3).doc2023-06-21 16:52 1k
File~$056NT - 300 hr (5).doc2023-06-21 16:52 1k
File~$056NT - 300 hr (6).doc2023-06-21 16:52 1k
File~$150NT - 150 hr (3).doc2023-06-21 16:52 1k
File~$150NT - 150 hr (4).doc2023-06-21 16:52 1k
File~$150NT - 150 hr (5).doc2023-06-21 16:52 1k
File~$150NT - 150 hr (6).doc2023-06-21 16:52 1k
File~$150NT - 150 hr (7).doc2023-06-21 16:52 1k
File~$150NT - 150 hr 12 Mon (1).doc2023-06-21 16:52 1k
File~$150NT - 150 hr 12 Mon (2).doc2023-06-21 16:52 1k
File~$150NT - 150 hr 12 Mon.doc2023-06-21 16:52 1k
File~$150NT - 150 hr.doc2023-06-21 16:52 1k
File~$3001NT - 300 hr (1).doc2023-06-21 16:52 1k
File~$3001NT - 300 hr.doc2023-06-21 16:52 1k
File~$300NT - 300 hr (1).doc2023-06-21 16:52 1k
File~$300NT - 300 hr (2).doc2023-06-21 16:52 1k
File~$300NT - 300 hr (3).doc2023-06-21 16:52 1k
File~$300NT - 300 hr (4).doc2023-06-21 16:52 1k
File~$300NT - 300 hr (6).doc2023-06-21 16:53 1k
File~$300NT - 300 hr (7).doc2023-06-21 16:53 1k
File~$300NT - 300 hr.doc2023-06-21 16:53 1k
File~$301NT - 300 hr (1).doc2023-06-21 16:53 1k
File~$301NT - 300 hr (10).doc2023-06-21 16:53 1k
File~$301NT - 300 hr (11).doc2023-06-21 16:53 1k
File~$301NT - 300 hr (13).doc2023-06-21 16:53 1k
File~$301NT - 300 hr (14).doc2023-06-21 16:53 1k
File~$301NT - 300 hr (15).doc2023-06-21 16:53 1k
File~$301NT - 300 hr (3).doc2023-06-21 16:53 1k
File~$301NT - 300 hr (4).doc2023-06-21 16:53 1k
File~$301NT - 300 hr (6).doc2023-06-21 16:53 1k
File~$301NT - 300 hr (7).doc2023-06-21 16:53 1k
File~$301NT - 300 hr (8).doc2023-06-21 16:53 1k
File~$301NT - 300 hr (9).doc2023-06-21 16:53 1k
File~$301NT - 300 hr.doc2023-06-21 16:53 1k
File~$302NT - 300 hr (1).doc2023-06-21 16:53 1k
File~$302NT - 300 hr (2).doc2023-06-21 16:53 1k
File~$302NT - 300 hr (3).doc2023-06-21 16:53 1k
File~$302NT - 300 hr (4).doc2023-06-21 16:53 1k
File~$302NT - 300 hr.doc2023-06-21 16:53 1k
File~$303NT - 300 hr (1).doc2023-06-21 16:53 1k
File~$303NT - 300 hr (3).doc2023-06-21 16:53 1k
File~$303NT - 300 hr (4).doc2023-06-21 16:53 1k
File~$303NT - 300 hr (5).doc2023-06-21 16:53 1k
File~$303NT - 300 hr (7).doc2023-06-21 16:53 1k
File~$303NT - 300 hr.doc2023-06-21 16:53 1k
File~$304NT - 300 hr (2).doc2023-06-21 16:53 1k
File~$304NT - 300 hr (4).doc2023-06-21 16:53 1k
File~$304NT - 300 hr (5).doc2023-06-21 16:53 1k
File~$304NT - 300 hr (6).doc2023-06-21 16:53 1k
File~$350NT - 300 hr 12 Mon (1).doc2023-06-21 16:53 1k
File~$350NT - 300 hr 12 Mon (2).doc2023-06-21 16:53 1k
File~$350NT - 300 hr 12 Mon (3).doc2023-06-21 16:53 1k
File~$350NT - 300 hr 12 Mon (4).doc2023-06-21 16:53 1k
File~$350NT - 300 hr 12 Mon (5).doc2023-06-21 16:53 1k
File~$350NT - 300 hr 12 Mon (6).doc2023-06-21 16:53 1k
File~$350NT - 300 hr 12 Mon.doc2023-06-21 16:53 1k
File~WRL0001.tmp2023-06-21 16:53 182k
File~WRL0005.tmp2023-06-21 16:53 201k
File~WRL0016.tmp2023-06-21 16:53 156k
File~WRL0284.tmp2023-06-21 16:53 161k
File~WRL0424.tmp2023-06-21 16:53 158k
File~WRL0706.tmp2023-06-21 16:53 156k
File~WRL1355.tmp2023-06-21 16:53 200k
File~WRL1536.tmp2023-06-21 16:53 189k
File~WRL2534.tmp2023-06-21 16:53 128k
File~WRL2840.tmp2023-06-21 16:53 157k
File~WRL3133.tmp2023-06-21 16:53 82k
File~WRL3531.tmp2023-06-21 16:53 179k
File~WRL3980.tmp2023-06-21 16:53 198k
File~WRL4008.tmp2023-06-21 16:53 134k
File~WRL4049.tmp2023-06-21 16:53 212k
Proudly Served by LiteSpeed Web Server at www.mhi.rotor-apps.com Port 443